C/2020 F6 ( PanSTARRS )

Japanese version
Home page
Updated on August 11, 2020

---------------------------------------------------------------------

* Profile

Discovery Date March 21, 2020
Magnitude 21.4 mag
Discoverer Pan-STARRS 1 telescope (Haleakala)

* Pictures

* Orbital Elements

Epoch 2020 Apr. 21.0 TT = JDT 2458960.5
T 2020 Apr. 11.55747 TT                                 Rudenko
q   3.5110530            (2000.0)            P               Q
z  +0.0025941      Peri.  344.58927     -0.72844090     -0.68368409
 +/-0.0000132      Node   207.87984     -0.61817134     +0.62811620
e   0.9908921      Incl.  174.58141     -0.29536087     +0.37154556
From 90 observations 2020 Mar. 21-July 20, mean residual 0".3.

* Magnitudes Graph

        m1 = 12.5 + 5 log d + 10.0 log r

---------------------------------------------------------------------

The orbital elements are published on M.P.E.C. 2020-P19.
The magnitudes graphs are made with Comet for Windows.

---------------------------------------------------------------------

Copyright(C) Seiichi Yoshida (comet@aerith.net). All rights reserved.